Overview Statistics Trail Chart Weather Telemetry Raw packets
 

This is the latest recevied weather packets stored in our database for station/object EA5JMY-10. If no packets are shown the sender has not sent any weather packets the latest 10 day(s).

<< 13 14 15 16 17 18 19 >>
Time Temp. Humidity Pressure Rain* Wind** Luminosity Snow
1788299717 26.67° C 74% 1020.9 hPa - - - -
1788298817 27.22° C 74% 1021 hPa - - - -
1788297917 27.22° C 74% 1020.9 hPa - - - -
1788297017 26.67° C 74% 1021 hPa - - - -
1788296117 27.22° C 73% 1020.8 hPa - - - -
1788295217 27.22° C 73% 1020.7 hPa - - - -
1788294317 27.22° C 72% 1020.7 hPa - - - -
1788293416 27.22° C 73% 1020.4 hPa - - - -
1788292516 27.22° C 73% 1020.3 hPa - - - -
1788291616 27.78° C 71% 1020.1 hPa - - - -
1788290716 27.78° C 71% 1019.9 hPa - - - -
1788289816 27.78° C 70% 1019.9 hPa - - - -
1788288916 27.78° C 70% 1019.5 hPa - - - -
1788288016 28.33° C 69% 1019.5 hPa - - - -
1788287116 28.33° C 69% 1019.5 hPa - - - -
1788286513 28.33° C 69% 1019.4 hPa - - - -
1788286215 28.33° C 69% 1019.4 hPa - - - -
1788285314 28.33° C 67% 1019.4 hPa - - - -
1788284414 28.33° C 68% 1019.3 hPa - - - -
1788283514 28.33° C 68% 1019.4 hPa - - - -
1788282614 28.89° C 65% 1019.3 hPa - - - -
1788281722 29.44° C 60% 1019.2 hPa - - - -
1788280813 30° C 59% 1019.2 hPa - - - -
1788279913 30° C 59% 1019.3 hPa - - - -
1788279013 30.56° C 57% 1018.8 hPa - - - -

* Rain since midnight (hover to see other rain measurements)
** Current wind speed in m/s (hover to see current wind gust speed)